Oakland, MD

11:43 PM EDT on April 30, 2017 (GMT -0400)
Oakland

Weather History for K2G4 - December, 2013

Change the Weather History Date:

Thursday, December 26, 2013

  Actual Average (KMGW) Record (KMGW)
Temperature  
Mean Temperature 28 °F -  
Max Temperature 32 °F 34 °F 69 °F (2016)
Min Temperature 23 °F 20 °F -5 °F (1983)
Degree Days  
Heating Degree Days 38    
Moisture  
Dew Point 15 °F    
Average Humidity 63    
Maximum Humidity 100    
Minimum Humidity 43    
Precipitation  
Precipitation 0.00 in - - ()
Sea Level Pressure  
Sea Level Pressure 30.13 in    
Wind  
Wind Speed 10 mph (WSW)    
Max Wind Speed 23 mph    
Max Gust Speed 37 mph    
Visibility 8 miles    
Events      
Averages and records for this station are not official NWS values.
T = Trace of Precipitation, MM = Missing Value Source: NWS Daily Summary

Daily Weather History Graph

Daily Weather History Graph

Search for Another Location

Airport or City:

Trip Planner

Search our weather history database for the weather conditions in past years. The results will help you decide how hot, cold, wet, or windy it might be!

Date:

Astronomy

Dec. 26, 2013 Rise Set
Actual Time 7:36 AM EST 4:59 PM EST
Civil Twilight 7:06 AM EST 5:30 PM EST
Nautical Twilight 6:32 AM EST 6:03 PM EST
Astronomical Twilight 5:59 AM EST 6:36 PM EST
Moon 1:04 AM EST (12/26) 12:33 PM EST (12/26)
Length of Visible Light 10h 23m
Length of Day
9h 23m
Last Quarter, 38% of the Moon is Illuminated
Dec 26
Last Quarter
Jan 1
New
Jan 7
First Quarter
Jan 15
Full
Jan 24
Last Quarter

Hourly Weather History & Observations

Time (EST) Temp. Windchill Dew Point Humidity Pressure Visibility Wind Dir Wind Speed Gust Speed Precip Events Conditions
12:05 AM 23.0 °F 15.8 °F 10.4 °F 59% 30.12 in 10.0 mi South 5.8 mph - N/A   Overcast
12:25 AM 24.8 °F 17.9 °F 10.4 °F 54% 30.11 in 10.0 mi South 5.8 mph - N/A   Overcast
12:45 AM 24.8 °F 17.9 °F 10.4 °F 54% 30.11 in 10.0 mi South 5.8 mph - N/A   Overcast
1:05 AM 26.6 °F 20.0 °F 10.4 °F 51% 30.09 in 10.0 mi South 5.8 mph - N/A   Overcast
1:25 AM 26.6 °F 20.0 °F 8.6 °F 47% 30.10 in 10.0 mi South 5.8 mph - N/A   Overcast
1:45 AM 26.6 °F 20.0 °F 8.6 °F 47% 30.09 in 10.0 mi South 5.8 mph - N/A   Overcast
2:05 AM 26.6 °F 19.1 °F 8.6 °F 47% 30.09 in 10.0 mi SSW 6.9 mph - N/A   Overcast
2:25 AM 26.6 °F 18.2 °F 8.6 °F 47% 30.09 in 10.0 mi SSW 8.1 mph - N/A   Overcast
2:45 AM 28.4 °F 21.2 °F 8.6 °F 43% 30.09 in 10.0 mi SSW 6.9 mph - N/A   Overcast
3:05 AM 28.4 °F 20.4 °F 8.6 °F 43% 30.09 in 10.0 mi SSW 8.1 mph - N/A   Overcast
3:25 AM 28.4 °F 20.4 °F 10.4 °F 47% 30.08 in 10.0 mi SW 8.1 mph - N/A   Overcast
3:45 AM 28.4 °F 21.2 °F 12.2 °F 51% 30.07 in 10.0 mi SW 6.9 mph 23.0 mph N/A   Overcast
4:05 AM 28.4 °F 18.5 °F 15.8 °F 59% 30.07 in 5.0 mi WSW 11.5 mph 18.4 mph N/A   Haze
4:25 AM 26.6 °F 16.8 °F 19.4 °F 74% 30.07 in 3.0 mi WSW 10.4 mph 18.4 mph N/A   Haze
4:45 AM 26.6 °F 17.5 °F 21.2 °F 80% 30.08 in 2.0 mi WSW 9.2 mph 20.7 mph N/A   Haze
5:05 AM 24.8 °F 16.9 °F 23.0 °F 93% 30.08 in 1.2 mi SW 6.9 mph - N/A   Mostly Cloudy
5:25 AM 24.8 °F 14.6 °F 24.8 °F 100% 30.07 in 1.2 mi WSW 10.4 mph 17.3 mph N/A   Mist
5:45 AM 24.8 °F 12.4 °F 24.8 °F 100% 30.07 in 2.0 mi SW 15.0 mph 21.9 mph N/A   Overcast
6:05 AM 26.6 °F 16.8 °F 26.6 °F 100% 30.07 in 7.0 mi SW 10.4 mph 19.6 mph N/A   Overcast
6:25 AM 26.6 °F 16.8 °F 26.6 °F 100% 30.07 in 10.0 mi SW 10.4 mph 21.9 mph N/A   Overcast
6:45 AM 26.6 °F 18.2 °F 26.6 °F 100% 30.07 in 10.0 mi SW 8.1 mph 17.3 mph N/A   Overcast
7:05 AM 26.6 °F 15.2 °F 23.0 °F 86% 30.06 in 10.0 mi SW 13.8 mph 21.9 mph N/A   Overcast
7:25 AM 26.6 °F 14.7 °F 23.0 °F 86% 30.07 in 10.0 mi SW 15.0 mph 20.7 mph N/A   Overcast
7:45 AM 26.6 °F 17.5 °F 23.0 °F 86% 30.07 in 10.0 mi WSW 9.2 mph 20.7 mph N/A   Overcast
8:05 AM 28.4 °F 19.1 °F 21.2 °F 74% 30.07 in 10.0 mi WSW 10.4 mph 26.5 mph N/A   Overcast
8:25 AM 28.4 °F 16.6 °F 21.2 °F 74% 30.07 in 10.0 mi WSW 16.1 mph 29.9 mph N/A   Overcast
8:45 AM 28.4 °F 17.0 °F 23.0 °F 80% 30.08 in 7.0 mi WSW 15.0 mph 29.9 mph N/A   Overcast
9:05 AM 26.6 °F 15.2 °F 23.0 °F 86% 30.09 in 1.8 mi WSW 13.8 mph 28.8 mph N/A   Overcast
9:25 AM 26.6 °F 15.2 °F 23.0 °F 86% 30.10 in 1.5 mi WSW 13.8 mph 28.8 mph N/A   Overcast
9:45 AM 26.6 °F 16.2 °F 24.8 °F 93% 30.11 in 1.0 mi West 11.5 mph 24.2 mph N/A   Overcast
10:05 AM 26.6 °F 14.3 °F 24.8 °F 93% 30.11 in 1.0 mi WSW 16.1 mph 25.3 mph N/A   Overcast
10:25 AM 26.6 °F 14.7 °F 23.0 °F 86% 30.12 in 1.2 mi West 15.0 mph 28.8 mph N/A   Overcast
10:45 AM 26.6 °F 17.5 °F 23.0 °F 86% 30.12 in 1.8 mi West 9.2 mph 24.2 mph N/A   Overcast
11:05 AM 26.6 °F 14.7 °F 23.0 °F 86% 30.12 in 1.2 mi West 15.0 mph 23.0 mph N/A   Overcast
11:25 AM 26.6 °F 15.7 °F 23.0 °F 86% 30.12 in 2.5 mi West 12.7 mph 21.9 mph N/A   Overcast
11:45 AM 26.6 °F 15.7 °F 23.0 °F 86% 30.12 in 2.5 mi West 12.7 mph 23.0 mph N/A   Overcast
12:05 PM 26.6 °F 15.2 °F 23.0 °F 86% 30.12 in 5.0 mi West 13.8 mph 25.3 mph N/A   Overcast
12:25 PM 26.6 °F 16.2 °F 21.2 °F 80% 30.12 in 5.0 mi West 11.5 mph 25.3 mph N/A   Overcast
12:45 PM 26.6 °F 12.0 °F 17.6 °F 69% 30.11 in 10.0 mi WSW 23.0 mph 36.8 mph N/A   Mostly Cloudy
1:05 PM 28.4 °F 19.1 °F 17.6 °F 64% 30.11 in 10.0 mi WSW 10.4 mph 26.5 mph N/A   Mostly Cloudy
1:25 PM 28.4 °F 17.0 °F 17.6 °F 64% 30.12 in 10.0 mi West 15.0 mph 24.2 mph N/A   Overcast
1:45 PM 28.4 °F 15.8 °F 17.6 °F 64% 30.12 in 10.0 mi West 18.4 mph 27.6 mph N/A   Mostly Cloudy
2:05 PM 30.2 °F 20.8 °F 15.8 °F 55% 30.11 in 10.0 mi WSW 11.5 mph 26.5 mph N/A   Mostly Cloudy
2:25 PM 30.2 °F 19.8 °F 15.8 °F 55% 30.12 in 10.0 mi WSW 13.8 mph 23.0 mph N/A   Mostly Cloudy
2:45 PM 30.2 °F 19.3 °F 14.0 °F 51% 30.13 in 10.0 mi West 15.0 mph 26.5 mph N/A   Mostly Cloudy
3:05 PM 32.0 °F 21.6 °F 12.2 °F 44% 30.13 in 10.0 mi WSW 15.0 mph 23.0 mph N/A   Scattered Clouds
3:25 PM 30.2 °F 18.9 °F 12.2 °F 47% 30.14 in 10.0 mi West 16.1 mph 24.2 mph N/A   Clear
3:45 PM 30.2 °F 20.8 °F 12.2 °F 47% 30.14 in 10.0 mi West 11.5 mph 25.3 mph N/A   Clear
4:05 PM 30.2 °F 21.9 °F 12.2 °F 47% 30.15 in 10.0 mi West 9.2 mph 21.9 mph N/A   Clear
4:25 PM 30.2 °F 20.8 °F 10.4 °F 44% 30.15 in 10.0 mi West 11.5 mph 21.9 mph N/A   Clear
4:45 PM 30.2 °F 20.8 °F 10.4 °F 44% 30.15 in 10.0 mi West 11.5 mph 23.0 mph N/A   Clear
5:05 PM 28.4 °F 18.5 °F 10.4 °F 47% 30.15 in 10.0 mi West 11.5 mph 21.9 mph N/A   Clear
5:25 PM 28.4 °F 17.5 °F 10.4 °F 47% 30.16 in 10.0 mi West 13.8 mph 20.7 mph N/A   Clear
5:45 PM 28.4 °F 17.0 °F 8.6 °F 43% 30.16 in 10.0 mi West 15.0 mph 20.7 mph N/A   Clear
6:05 PM 28.4 °F 18.5 °F 8.6 °F 43% 30.16 in 10.0 mi West 11.5 mph 23.0 mph N/A   Clear
6:25 PM 28.4 °F 16.6 °F 8.6 °F 43% 30.16 in 10.0 mi West 16.1 mph 27.6 mph N/A   Clear
6:45 PM 28.4 °F 18.0 °F 8.6 °F 43% 30.17 in 10.0 mi West 12.7 mph 21.9 mph N/A   Clear
7:05 PM 28.4 °F 18.0 °F 8.6 °F 43% 30.18 in 10.0 mi West 12.7 mph 20.7 mph N/A   Clear
7:25 PM 28.4 °F 17.5 °F 8.6 °F 43% 30.18 in 10.0 mi West 13.8 mph 24.2 mph N/A   Clear
7:45 PM 28.4 °F 16.6 °F 8.6 °F 43% 30.19 in 10.0 mi West 16.1 mph 23.0 mph N/A   Clear
8:05 PM 26.6 °F 14.3 °F 8.6 °F 47% 30.19 in 10.0 mi West 16.1 mph 25.3 mph N/A   Clear
8:25 PM 26.6 °F 14.7 °F 10.4 °F 51% 30.20 in 10.0 mi West 15.0 mph 23.0 mph N/A   Clear
8:45 PM 26.6 °F 16.8 °F 10.4 °F 51% 30.20 in 10.0 mi West 10.4 mph 23.0 mph N/A   Clear
9:05 PM 26.6 °F 15.7 °F 10.4 °F 51% 30.21 in 10.0 mi West 12.7 mph 23.0 mph N/A   Clear
9:25 PM 26.6 °F 15.7 °F 10.4 °F 51% 30.21 in 10.0 mi West 12.7 mph 23.0 mph N/A   Clear
9:45 PM 26.6 °F 15.7 °F 10.4 °F 51% 30.22 in 10.0 mi West 12.7 mph 19.6 mph N/A   Clear
10:05 PM 26.6 °F 16.2 °F 10.4 °F 51% 30.22 in 10.0 mi West 11.5 mph 20.7 mph N/A   Clear
10:25 PM 24.8 °F 14.0 °F 10.4 °F 54% 30.22 in 10.0 mi West 11.5 mph 18.4 mph N/A   Clear
10:45 PM 24.8 °F 14.6 °F 10.4 °F 54% 30.22 in 10.0 mi West 10.4 mph 16.1 mph N/A   Clear
11:05 PM 24.8 °F 15.3 °F 10.4 °F 54% 30.22 in 10.0 mi West 9.2 mph 16.1 mph N/A   Clear
11:25 PM 23.0 °F 13.1 °F 10.4 °F 59% 30.22 in 10.0 mi West 9.2 mph - N/A   Clear
11:45 PM 23.0 °F 12.4 °F 10.4 °F 59% 30.23 in 10.0 mi West 10.4 mph 20.7 mph N/A   Clear